Domov               UVHVVR             MKGP            O straneh              
ZDRAVSTVENO VARSTVO RASTLIN
  MREŽA AGROMET. POSTAJ
 ► PROGNOSTIČNA OBVESTILA
AGROMETEOROLOŠKI PODATKI -
ARSO
OBVLADOVANJE TVEGANJ ZARADI
NEUGODNIH VREMENSKIH RAZMER
  ► NARAVNE NESREČE
  ► SUŠA/MOČA
  ► NAMAKANJE
  ► ŽLED (gozdarstvo)
KARTOGRAFSKI PRIKAZI
SPLETNE POVEZAVE
PROJEKTI IN PUBLIKACIJE

AGROMETEOROLOŠKA MREŽA: VREMENSKE POSTAJE IN FENOLOŠKA OPAZOVANJA

Pregled podatkov za lokacijo Drašiči, meteorološka postaja 38741

Pregled senzorjev na lokaciji

ID Ime Zadnja
vrednost
Datum
zadnje
spremembe
Tip
senzorja
1867 Omočenost lista (U) 0 U 21.5.2018 12:30 A730WET
1868 Padavine (mm) 0 mm 21.5.2018 12:30 Rain-O-Matic
1866 Relativna vlaga 2 m (% RH) 50,57 % RH 21.5.2018 12:30 50YA
1865 Temperatura 2 m (°C) 23,22 °C 21.5.2018 12:30 50YA

Pregled podatkov zadnjih 24 ur

Zap.
št.
Datum in čas Drašiči
Omočenost
lista
Padavine Relativna
vlaga
2
m
Temperatura
2
m
1 21.5.2018 12:30
2 21.5.2018 12:00
3 21.5.2018 11:30
4 21.5.2018 11:00 0 0 50,2 23,3
5 21.5.2018 10:30 0 0 54,3 22
6 21.5.2018 10:00 0 0 55 21,4
7 21.5.2018 09:30 0 0 56,1 21,4
8 21.5.2018 09:00 0 0 56,3 21,2
9 21.5.2018 08:30 0 0 56,9 19,9
10 21.5.2018 08:00 0 0 61,2 19,1
11 21.5.2018 07:30 0 0 66,3 17,6
12 21.5.2018 07:00 0 0 71,2 16,4
13 21.5.2018 06:30 0 0 74,9 15,3
14 21.5.2018 06:00 0 0 75,7 14,9
15 21.5.2018 05:30 0 0 80,4 13,1
16 21.5.2018 05:00 0 0 79,4 12,9
17 21.5.2018 04:30 0 0 75,1 13,6
18 21.5.2018 04:00 0 0 70,3 14,5
19 21.5.2018 03:30 0 0 65,6 15,4
20 21.5.2018 03:00 0 0 62,5 16
21 21.5.2018 02:30 0 0 61,9 16,2
22 21.5.2018 02:00 0 0 62,1 16,2
23 21.5.2018 01:30 0 0 62,4 16,4
24 21.5.2018 01:00 0 0 62,1 16,7
25 21.5.2018 00:30 0 0 63,7 16,3
26 21.5.2018 00:00 0 0 62,5 16,7
27 20.5.2018 23:30 0 0 61,9 17,1
28 20.5.2018 23:00 0 0 60,8 17,4
29 20.5.2018 22:30 0 0 60,9 17,6
30 20.5.2018 22:00 0 0 60,3 17,9
31 20.5.2018 21:30 0 0 59,8 18,1
32 20.5.2018 21:00 0 0 58,6 18,2
33 20.5.2018 20:30 0 0 58,6 18,2
34 20.5.2018 20:00 0 0 59,4 18,2
35 20.5.2018 19:30 0 0 57,7 18,6
36 20.5.2018 19:00 0 0 51,9 19,5
37 20.5.2018 18:30 0 0 45,6 21
38 20.5.2018 18:00 0 0 42,6 21,5
39 20.5.2018 17:30 0 0 39,6 21,9
40 20.5.2018 17:00 0 0 38,9 22,1
41 20.5.2018 16:30 0 0 38,5 22,1
42 20.5.2018 16:00 0 0 46,1 21,8
43 20.5.2018 15:30 0 0 52,3 22,1
44 20.5.2018 15:00 0 0 54,8 21,2
45 20.5.2018 14:30 0 0 50,9 21,1
46 20.5.2018 14:00 0 0 50,2 21,3
47 20.5.2018 13:30 0 0 46,6 23,6
48 20.5.2018 13:00 0 0 48,7 22
© 2011 Ministrstvo za kmetijstvo, gozdarstvo in prehrano. Vse pravice pridržane.